Weather History for KPUC - December, 2012

Change the Weather History Date:

Saturday, December 8, 2012

  Actual Average Record
Temperature  
Mean Temperature 34 °F -  
Max Temperature 46 °F 35 °F 50 °F (1973)
Min Temperature 21 °F 17 °F -5 °F (1978)
Degree Days  
Heating Degree Days 32    
Moisture  
Dew Point 14 °F    
Average Humidity 51    
Maximum Humidity 68    
Minimum Humidity 24    
Precipitation  
Precipitation 0.00 in - - ()
Sea Level Pressure  
Sea Level Pressure 29.96 in    
Wind  
Wind Speed 11 mph (NNW)    
Max Wind Speed 28 mph    
Max Gust Speed 36 mph    
Visibility 10 miles    
Events      
Averages and records for this station are not official NWS values.
T = Trace of Precipitation, MM = Missing Value Source: NWS Daily Summary

Daily Weather History Graph

Daily Weather History Graph

Search for Another Location

Airport or City:

Trip Planner

Search our weather history database for the weather conditions in past years. The results will help you decide how hot, cold, wet, or windy it might be!

Date:

Astronomy

Dec. 08, 2012 Rise Set
Actual Time 7:31 AM MST 4:58 PM MST
Civil Twilight 7:01 AM MST 5:28 PM MST
Nautical Twilight 6:27 AM MST 6:02 PM MST
Astronomical Twilight 5:55 AM MST 6:35 PM MST
Moon 2:01 AM MST (12/8) 1:30 PM MST (12/8)
Length of Visible Light 10h 27m
Length of Day
9h 27m
Waning Crescent, 27% of the Moon is Illuminated
Dec 8
Waning Crescent
Dec 13
New
Dec 19
First Quarter
Dec 28
Full
Jan 4
Last Quarter

Hourly Weather History & Observations

Time (MST) Temp. Windchill Dew Point Humidity Pressure Visibility Wind Dir Wind Speed Gust Speed Precip Events Conditions
12:53 AM 24.1 °F 13.7 °F 12.9 °F 62% 30.00 in 10.0 mi NNE 10.4 mph - N/A   Clear
1:53 AM 25.0 °F 14.8 °F 12.9 °F 60% 29.98 in 10.0 mi NNE 10.4 mph - N/A   Clear
2:53 AM 24.1 °F 14.4 °F 12.9 °F 62% 29.97 in 10.0 mi NNE 9.2 mph - N/A   Clear
3:53 AM 26.1 °F 21.9 °F 14.0 °F 60% 29.94 in 10.0 mi ENE 3.5 mph - N/A   Clear
4:53 AM 21.0 °F 12.4 °F 12.0 °F 68% 29.96 in 10.0 mi North 6.9 mph - N/A   Clear
5:53 AM 23.0 °F 13.9 °F 12.9 °F 65% 29.96 in 10.0 mi NNE 8.1 mph - N/A   Clear
6:53 AM 21.9 °F 11.7 °F 12.0 °F 66% 29.99 in 10.0 mi North 9.2 mph - N/A   Clear
7:53 AM 21.9 °F 15.7 °F 12.0 °F 66% 29.98 in 10.0 mi Variable 4.6 mph - N/A   Clear
8:53 AM 30.9 °F - 15.1 °F 52% 29.95 in 10.0 mi Calm Calm - N/A   Clear
9:53 AM 33.1 °F 28.7 °F 16.0 °F 50% 29.95 in 10.0 mi Variable 4.6 mph - N/A   Clear
10:53 AM 39.9 °F 36.7 °F 15.1 °F 36% 29.94 in 10.0 mi Variable 4.6 mph - N/A   Clear
11:53 AM 46.0 °F 37.0 °F 10.9 °F 24% 29.90 in 10.0 mi West 27.6 mph 35.7 mph N/A   Clear
12:53 PM 46.9 °F - 12.0 °F 24% 29.87 in 10.0 mi West 17.3 mph 34.5 mph N/A   Clear
1:53 PM 42.1 °F 33.3 °F 15.1 °F 34% 29.91 in 10.0 mi West 19.6 mph 29.9 mph N/A   Clear
2:53 PM 41.0 °F 37.1 °F 18.0 °F 40% 29.93 in 10.0 mi Variable 5.8 mph - N/A   Partly Cloudy
3:53 PM 37.9 °F 31.5 °F 18.0 °F 45% 29.95 in 10.0 mi NW 9.2 mph - N/A   Scattered Clouds
4:53 PM 35.6 °F 28.0 °F 17.6 °F 48% 29.87 in 10.0 mi NNW 10.4 mph - N/A   Partly Cloudy
5:53 PM 33.1 °F 24.9 °F 17.1 °F 52% 30.00 in 10.0 mi NNW 10.4 mph - N/A   Clear
6:53 PM 32.0 °F 20.1 °F 15.1 °F 50% 30.02 in 10.0 mi NW 19.6 mph 25.3 mph N/A   Clear
7:53 PM 30.9 °F 19.4 °F 14.0 °F 50% 30.03 in 10.0 mi NW 17.3 mph 25.3 mph N/A   Overcast
8:53 PM 30.9 °F 20.2 °F 14.0 °F 50% 30.01 in 10.0 mi NW 15.0 mph 23.0 mph N/A   Mostly Cloudy
9:53 PM 30.0 °F 17.9 °F 14.0 °F 51% 30.00 in 10.0 mi NNW 18.4 mph 26.5 mph N/A   Clear
10:53 PM 28.9 °F 16.1 °F 12.0 °F 49% 29.99 in 10.0 mi NNW 19.6 mph 27.6 mph N/A   Overcast
11:53 PM 28.0 °F 14.6 °F 10.9 °F 49% 29.99 in 10.0 mi NW 20.7 mph 27.6 mph N/A   Overcast